contact:dominique.lefevre@mio.osupytheas.fr, maurice.libes@osupytheas.fr, didier.mallarino@osupytheas.fr
Project:EMSO http://www.emso-fr.org/EMSO-France
Depth: 2436.0 m
Title:EMSO Ligure Ouest : Data MII capteur AQUADOPP
Date,Latitude,Longitude,X_East,Y_North,Z_Up,Amplitude_X,Amplitude_Y,Amplitude_Z,Batterie,SoundSpeed,Heading,Pitch,Roll,Pressure,TIS,Speed,Direction
, degrees North, degrees East, m.s-1, m.s-1,m.s-1, 1, 1, 1, Volt, m.s-1, degree, degree, degree, dbar, degree_C, m.s-1, degree
2020-01-10T00:04:02,42.805,6.029,0.006,0.002,0.013,112.0,114.0,106.0,13.3,1505.3,324.9,-0.7,1.8,2470.203,13.32,0.006,71.6
2020-01-10T00:07:02,42.805,6.029,-0.017,0.0,-0.023,112.0,116.0,107.0,13.3,1505.3,325.5,-0.7,1.9,2470.186,13.33,0.017,270.0
2020-01-10T00:10:02,42.805,6.029,-0.008,-0.015,-0.033,112.0,115.0,106.0,13.3,1505.3,323.4,-0.7,1.8,2470.213,13.33,0.017,208.1
2020-01-10T00:13:03,42.805,6.029,-0.031,-0.001,-0.019,111.0,113.0,107.0,13.4,1505.3,325.1,-0.7,1.8,2470.216,13.33,0.031,268.2
2020-01-10T00:16:03,42.805,6.029,-0.03,0.009,-0.021,112.0,114.0,108.0,13.3,1505.4,324.9,-0.7,1.8,2470.182,13.34,0.031,286.7
2020-01-10T00:19:03,42.805,6.029,-0.011,0.015,-0.026,112.0,114.0,108.0,13.4,1505.4,325.0,-0.7,1.9,2470.158,13.34,0.018,323.7
2020-01-10T00:22:02,42.805,6.029,-0.004,-0.016,-0.033,112.0,115.0,108.0,13.4,1505.4,324.6,-0.7,1.8,2470.195,13.34,0.016,194.0
2020-01-10T00:25:03,42.805,6.029,-0.008,-0.01,-0.034,112.0,115.0,108.0,13.3,1505.4,327.7,-0.7,1.8,2470.136,13.34,0.012,218.7
2020-01-10T00:28:03,42.805,6.029,-0.022,-0.006,0.0,111.0,115.0,107.0,13.4,1505.4,325.6,-0.7,1.9,2470.176,13.34,0.022,254.7
2020-01-10T00:34:02,42.805,6.029,-0.004,-0.003,-0.032,112.0,113.0,107.0,13.3,1505.3,323.1,-0.7,1.8,2470.209,13.32,0.005,233.1
2020-01-10T00:37:02,42.805,6.029,-0.012,-0.017,-0.01,112.0,114.0,106.0,13.4,1505.3,323.5,-0.7,1.8,2470.184,13.33,0.02,215.2
2020-01-10T00:40:03,42.805,6.029,0.011,0.014,-0.021,111.0,114.0,108.0,13.4,1505.3,323.1,-0.7,1.8,2470.191,13.33,0.017,38.2
2020-01-10T00:43:02,42.805,6.029,0.003,-0.015,-0.024,113.0,114.0,108.0,13.4,1505.3,323.1,-0.7,1.8,2470.163,13.33,0.015,168.7
2020-01-10T00:46:03,42.805,6.029,-0.005,0.005,0.0,112.0,114.0,107.0,13.4,1505.4,324.0,-0.7,1.9,2470.174,13.34,0.007,315.0
2020-01-10T00:49:02,42.805,6.029,-0.009,0.0,-0.04,111.0,114.0,107.0,13.4,1505.4,324.7,-0.7,1.9,2470.162,13.34,0.009,270.0
2020-01-10T00:52:02,42.805,6.029,-0.013,-0.005,-0.014,109.0,116.0,108.0,13.4,1505.4,323.3,-0.7,1.9,2470.189,13.34,0.013,249.0
2020-01-10T00:55:03,42.805,6.029,-0.011,0.007,0.013,111.0,114.0,106.0,13.4,1505.4,323.2,-0.7,1.8,2470.138,13.34,0.013,302.5
2020-01-10T00:58:03,42.805,6.029,0.009,0.0,-0.014,112.0,114.0,106.0,13.4,1505.4,325.3,-0.7,1.8,2470.184,13.34,0.009,90.0
2020-01-10T01:04:02,42.805,6.029,0.002,0.014,-0.022,112.0,114.0,108.0,13.3,1505.3,323.4,-0.7,1.8,2470.159,13.32,0.014,8.1
2020-01-10T01:07:03,42.805,6.029,0.024,0.0,0.009,111.0,111.0,108.0,13.4,1505.3,326.8,-0.8,1.8,2470.183,13.33,0.024,90.0
2020-01-10T01:10:03,42.805,6.029,0.005,-0.007,0.0,110.0,113.0,107.0,13.3,1505.3,328.4,-0.7,1.8,2470.16,13.33,0.008,144.5
2020-01-10T01:13:03,42.805,6.029,0.013,-0.007,-0.009,112.0,112.0,108.0,13.3,1505.4,326.0,-0.7,1.9,2470.175,13.34,0.014,118.3
2020-01-10T01:16:03,42.805,6.029,0.007,0.0,-0.025,110.0,114.0,109.0,13.4,1505.4,326.7,-0.7,1.8,2470.198,13.34,0.007,90.0
2020-01-10T01:19:03,42.805,6.029,-0.007,0.01,-0.01,111.0,113.0,107.0,13.4,1505.4,324.2,-0.7,1.9,2470.176,13.34,0.012,325.0
2020-01-10T01:22:02,42.805,6.029,0.027,-0.006,0.007,112.0,114.0,105.0,13.4,1505.4,324.7,-0.7,1.8,2470.183,13.34,0.027,102.5
2020-01-10T01:25:03,42.805,6.029,0.016,-0.016,-0.021,112.0,113.0,108.0,13.4,1505.4,327.7,-0.7,1.8,2470.13,13.35,0.022,135.0
2020-01-10T01:28:03,42.805,6.029,-0.002,0.004,-0.006,110.0,116.0,108.0,13.3,1505.4,325.5,-0.7,1.8,2470.149,13.35,0.004,333.4
2020-01-10T01:31:02,42.805,6.029,0.013,-0.003,-0.013,112.0,116.0,106.0,13.4,1505.4,324.5,-0.7,1.8,2470.145,13.35,0.013,103.0
2020-01-10T01:34:03,42.805,6.029,-0.003,0.001,-0.003,111.0,114.0,106.0,13.3,1505.4,327.9,-0.7,1.8,2470.135,13.35,0.003,288.4
2020-01-10T01:37:02,42.805,6.029,0.006,-0.005,-0.029,110.0,115.0,108.0,13.4,1505.4,325.3,-0.7,1.8,2470.201,13.34,0.007,129.8
2020-01-10T01:40:03,42.805,6.029,0.027,0.017,0.011,112.0,114.0,107.0,13.3,1505.4,322.9,-0.7,1.8,2470.124,13.34,0.031,57.8
2020-01-10T01:43:03,42.805,6.029,0.01,-0.013,0.003,111.0,114.0,107.0,13.4,1505.4,327.0,-0.7,1.8,2470.175,13.34,0.016,142.4
2020-01-10T01:46:03,42.805,6.029,0.0,0.003,-0.027,110.0,116.0,105.0,13.4,1505.4,327.6,-0.7,1.8,2470.155,13.34,0.003,0.0
2020-01-10T01:49:03,42.805,6.029,0.002,0.019,-0.007,110.0,113.0,109.0,13.3,1505.4,323.2,-0.8,1.9,2470.158,13.34,0.019,6.0
2020-01-10T01:52:02,42.805,6.029,0.011,0.005,-0.002,111.0,114.0,106.0,13.4,1505.4,323.3,-0.7,1.8,2470.187,13.35,0.012,65.6
2020-01-10T01:55:03,42.805,6.029,-0.005,-0.003,-0.01,110.0,114.0,106.0,13.3,1505.4,325.6,-0.7,1.8,2470.149,13.35,0.005,239.0
2020-01-10T01:58:02,42.805,6.029,0.01,0.0,0.006,110.0,113.0,105.0,13.3,1505.4,326.2,-0.7,1.9,2470.147,13.35,0.01,90.0
2020-01-10T02:04:02,42.805,6.029,-0.013,0.002,-0.021,109.0,114.0,107.0,13.4,1505.3,328.9,-0.7,1.9,2470.225,13.33,0.013,278.7
2020-01-10T02:07:02,42.805,6.029,0.012,0.021,-0.04,112.0,114.0,106.0,13.4,1505.4,325.6,-0.8,1.8,2470.208,13.34,0.024,29.7
2020-01-10T02:10:02,42.805,6.029,0.008,-0.004,-0.004,110.0,116.0,105.0,13.4,1505.4,323.8,-0.7,1.8,2470.198,13.34,0.008,116.6
2020-01-10T02:13:03,42.805,6.029,0.001,0.017,-0.011,111.0,113.0,106.0,13.4,1505.4,323.7,-0.7,1.8,2470.165,13.34,0.017,3.4
2020-01-10T02:16:03,42.805,6.029,0.007,0.009,-0.042,110.0,113.0,108.0,13.4,1505.4,326.7,-0.7,1.9,2470.183,13.35,0.011,37.9
2020-01-10T02:19:03,42.805,6.029,-0.002,0.024,-0.005,110.0,114.0,107.0,13.4,1505.4,326.5,-0.7,1.8,2470.203,13.35,0.024,355.2
2020-01-10T02:22:02,42.805,6.029,0.005,0.02,-0.014,110.0,113.0,106.0,13.4,1505.4,328.4,-0.7,1.8,2470.207,13.35,0.02,14.0
2020-01-10T02:25:03,42.805,6.029,0.008,0.024,0.03,110.0,115.0,104.0,13.4,1505.4,323.6,-0.7,1.8,2470.181,13.35,0.025,18.4
2020-01-10T02:28:02,42.805,6.029,0.023,0.023,0.011,113.0,113.0,106.0,13.4,1505.4,324.4,-0.7,1.9,2470.207,13.35,0.032,45.0
2020-01-10T02:31:02,42.805,6.029,-0.002,0.016,0.011,110.0,114.0,105.0,13.4,1505.4,323.4,-0.7,1.8,2470.196,13.35,0.016,352.9
2020-01-10T02:34:03,42.805,6.029,-0.002,0.005,-0.006,110.0,115.0,104.0,13.4,1505.4,325.7,-0.7,1.8,2470.182,13.35,0.005,338.2
2020-01-10T02:37:02,42.805,6.029,0.007,0.021,-0.055,112.0,113.0,108.0,13.3,1505.4,324.5,-0.7,1.8,2470.165,13.35,0.022,18.4
2020-01-10T02:40:03,42.805,6.029,0.006,0.0,-0.02,111.0,113.0,107.0,13.4,1505.4,327.8,-0.7,1.9,2470.216,13.35,0.006,90.0
2020-01-10T02:43:03,42.805,6.029,-0.013,0.027,-0.001,112.0,113.0,106.0,13.3,1505.4,326.2,-0.7,1.9,2470.194,13.35,0.029,334.3
2020-01-10T02:46:03,42.805,6.029,0.003,0.009,-0.021,111.0,112.0,107.0,13.4,1505.4,324.9,-0.7,1.9,2470.208,13.35,0.009,18.4
2020-01-10T02:49:02,42.805,6.029,-0.003,0.011,-0.01,112.0,113.0,107.0,13.3,1505.4,327.3,-0.7,1.8,2470.21,13.35,0.011,344.7
2020-01-10T02:52:02,42.805,6.029,0.0,0.005,-0.038,110.0,115.0,107.0,13.3,1505.4,325.9,-0.7,1.8,2470.188,13.35,0.005,0.0
2020-01-10T02:55:03,42.805,6.029,0.003,0.018,-0.038,112.0,114.0,108.0,13.4,1505.4,324.8,-0.7,1.8,2470.168,13.35,0.018,9.5
2020-01-10T02:58:03,42.805,6.029,0.011,0.019,-0.011,110.0,113.0,106.0,13.4,1505.4,326.5,-0.8,1.8,2470.201,13.35,0.021,30.1
2020-01-10T03:04:02,42.805,6.029,-0.015,0.004,-0.011,112.0,113.0,107.0,13.4,1505.3,325.6,-0.7,1.8,2470.279,13.33,0.015,284.9
2020-01-10T03:07:02,42.805,6.029,-0.008,0.008,0.003,110.0,113.0,107.0,13.4,1505.4,325.5,-0.7,1.8,2470.261,13.34,0.011,315.0
2020-01-10T03:10:03,42.805,6.029,0.002,0.012,-0.013,109.0,114.0,107.0,13.4,1505.4,324.5,-0.7,1.8,2470.228,13.34,0.012,9.5
2020-01-10T03:13:03,42.805,6.029,-0.007,-0.001,-0.007,112.0,112.0,106.0,13.3,1505.4,328.5,-0.7,1.8,2470.229,13.34,0.007,261.9
2020-01-10T03:16:03,42.805,6.029,-0.01,0.013,-0.024,114.0,113.0,107.0,13.4,1505.4,327.0,-0.7,1.8,2470.187,13.35,0.016,322.4
2020-01-10T03:19:03,42.805,6.029,0.006,0.001,-0.006,111.0,114.0,106.0,13.3,1505.4,327.9,-0.7,1.8,2470.276,13.35,0.006,80.5
2020-01-10T03:22:02,42.805,6.029,0.017,0.013,-0.009,112.0,114.0,107.0,13.3,1505.4,324.3,-0.7,1.8,2470.26,13.35,0.021,52.6
2020-01-10T03:25:03,42.805,6.029,0.006,0.015,-0.01,113.0,113.0,106.0,13.4,1505.4,323.7,-0.7,1.8,2470.252,13.35,0.016,21.8
2020-01-10T03:28:03,42.805,6.029,0.012,-0.003,-0.007,112.0,115.0,106.0,13.4,1505.4,325.0,-0.7,1.9,2470.265,13.35,0.012,104.0
2020-01-10T03:31:03,42.805,6.029,0.0,0.03,-0.015,113.0,113.0,107.0,13.3,1505.4,324.3,-0.7,1.8,2470.244,13.35,0.03,0.0
2020-01-10T03:34:02,42.805,6.029,-0.005,0.025,-0.001,112.0,115.0,106.0,13.3,1505.4,323.7,-0.7,1.9,2470.24,13.35,0.025,348.7
2020-01-10T03:37:02,42.805,6.029,0.0,0.015,-0.032,112.0,113.0,106.0,13.3,1505.4,325.8,-0.7,1.8,2470.3,13.35,0.015,0.0
2020-01-10T03:40:03,42.805,6.029,-0.01,0.002,-0.026,112.0,114.0,106.0,13.4,1505.4,326.8,-0.7,1.9,2470.235,13.35,0.01,281.3
2020-01-10T03:43:03,42.805,6.029,0.016,0.028,-0.01,111.0,113.0,108.0,13.4,1505.4,326.2,-0.7,1.8,2470.278,13.35,0.032,29.7
2020-01-10T03:46:02,42.805,6.029,-0.005,0.027,-0.018,111.0,113.0,106.0,13.4,1505.4,327.3,-0.7,1.8,2470.27,13.35,0.027,349.5
2020-01-10T03:49:02,42.805,6.029,0.001,0.024,-0.02,112.0,114.0,107.0,13.3,1505.4,325.2,-0.7,1.8,2470.285,13.35,0.024,2.4
2020-01-10T03:52:02,42.805,6.029,-0.016,0.006,-0.012,111.0,114.0,107.0,13.4,1505.4,324.3,-0.7,1.8,2470.256,13.35,0.017,290.6
2020-01-10T03:55:03,42.805,6.029,0.001,0.016,-0.003,110.0,113.0,107.0,13.4,1505.4,327.1,-0.7,1.8,2470.281,13.34,0.016,3.6
2020-01-10T03:58:03,42.805,6.029,-0.018,0.025,-0.028,111.0,113.0,106.0,13.4,1505.4,324.8,-0.7,1.9,2470.278,13.34,0.03,324.2
2020-01-10T04:04:02,42.805,6.029,-0.009,0.036,0.003,111.0,113.0,106.0,13.4,1505.3,326.0,-0.8,1.8,2470.308,13.33,0.037,346.0
2020-01-10T04:07:02,42.805,6.029,0.004,0.013,-0.013,112.0,115.0,107.0,13.3,1505.3,327.4,-0.7,1.9,2470.282,13.33,0.013,17.1
2020-01-10T04:10:03,42.805,6.029,-0.008,0.021,-0.019,111.0,115.0,107.0,13.4,1505.3,328.4,-0.7,1.8,2470.342,13.33,0.022,339.1
2020-01-10T04:13:02,42.805,6.029,0.007,0.017,-0.021,110.0,113.0,104.0,13.4,1505.4,327.7,-0.7,1.8,2470.32,13.34,0.018,22.4
2020-01-10T04:16:03,42.805,6.029,0.012,0.023,-0.01,110.0,113.0,107.0,13.4,1505.4,326.8,-0.7,1.8,2470.318,13.34,0.025,27.6
2020-01-10T04:19:03,42.805,6.029,0.016,0.024,0.036,109.0,114.0,106.0,13.3,1505.4,327.4,-0.7,1.8,2470.325,13.34,0.028,33.7
2020-01-10T04:22:02,42.805,6.029,-0.032,0.017,0.006,109.0,114.0,107.0,13.3,1505.4,325.4,-0.8,1.9,2470.323,13.34,0.036,298.0
2020-01-10T04:25:03,42.805,6.029,0.0,0.0,0.016,111.0,113.0,106.0,13.4,1505.4,326.1,-0.7,1.8,2470.312,13.34,0.0,0.0
2020-01-10T04:28:03,42.805,6.029,0.002,0.018,-0.01,110.0,114.0,105.0,13.3,1505.4,327.1,-0.7,1.8,2470.317,13.34,0.018,6.3
2020-01-10T04:31:03,42.805,6.029,-0.02,0.029,-0.033,110.0,113.0,107.0,13.4,1505.4,327.1,-0.7,1.9,2470.284,13.34,0.035,325.4
2020-01-10T04:34:03,42.805,6.029,-0.02,0.019,-0.04,110.0,113.0,106.0,13.4,1505.4,326.6,-0.7,1.8,2470.361,13.34,0.027,313.5
2020-01-10T04:37:02,42.805,6.029,-0.014,0.006,-0.007,111.0,114.0,106.0,13.4,1505.4,325.0,-0.7,1.9,2470.341,13.34,0.015,293.2
2020-01-10T04:40:03,42.805,6.029,0.005,0.02,-0.013,110.0,115.0,105.0,13.4,1505.4,328.4,-0.7,1.8,2470.303,13.34,0.02,14.0
2020-01-10T04:43:03,42.805,6.029,-0.017,0.022,-0.016,110.0,115.0,105.0,13.4,1505.4,323.6,-0.7,1.8,2470.347,13.34,0.027,322.3
2020-01-10T04:46:03,42.805,6.029,-0.007,0.021,-0.014,109.0,115.0,106.0,13.4,1505.4,324.7,-0.7,1.8,2470.402,13.34,0.022,341.6
2020-01-10T04:49:03,42.805,6.029,0.017,0.023,-0.03,111.0,115.0,106.0,13.4,1505.4,326.1,-0.8,1.8,2470.28,13.34,0.028,36.5
2020-01-10T04:52:02,42.805,6.029,0.0,0.03,0.007,110.0,114.0,105.0,13.3,1505.4,326.0,-0.7,1.8,2470.305,13.34,0.03,0.0
2020-01-10T04:55:02,42.805,6.029,0.001,0.028,-0.018,111.0,115.0,106.0,13.4,1505.4,324.8,-0.7,1.9,2470.36,13.34,0.028,2.0
2020-01-10T04:58:03,42.805,6.029,0.002,0.022,0.003,111.0,114.0,106.0,13.4,1505.4,324.6,-0.7,1.8,2470.358,13.34,0.022,5.2
2020-01-10T05:04:02,42.805,6.029,-0.006,0.033,0.0,111.0,117.0,106.0,13.4,1505.3,324.7,-0.7,1.8,2470.368,13.32,0.033,349.7
2020-01-10T05:07:02,42.805,6.029,-0.002,0.04,-0.012,109.0,116.0,106.0,13.3,1505.3,323.4,-0.7,1.8,2470.348,13.32,0.04,357.1
2020-01-10T05:10:03,42.805,6.029,0.001,0.021,-0.003,111.0,117.0,105.0,13.4,1505.3,325.6,-0.7,1.9,2470.447,13.33,0.021,2.7
2020-01-10T05:13:03,42.805,6.029,0.017,0.025,-0.021,110.0,113.0,106.0,13.3,1505.3,325.0,-0.7,1.9,2470.351,13.33,0.03,34.2
2020-01-10T05:16:03,42.805,6.029,0.001,0.009,-0.019,108.0,114.0,104.0,13.4,1505.3,328.7,-0.7,1.9,2470.363,13.33,0.009,6.3
2020-01-10T05:19:02,42.805,6.029,0.0,0.032,0.008,109.0,115.0,105.0,13.3,1505.3,327.1,-0.7,1.8,2470.403,13.33,0.032,0.0
2020-01-10T05:22:02,42.805,6.029,-0.012,0.04,-0.002,110.0,115.0,105.0,13.4,1505.3,326.4,-0.7,1.8,2470.377,13.33,0.041,343.3
2020-01-10T05:25:03,42.805,6.029,-0.012,0.022,-0.01,109.0,115.0,105.0,13.4,1505.3,326.1,-0.7,1.8,2470.361,13.33,0.025,331.4
2020-01-10T05:28:03,42.805,6.029,-0.004,0.025,-0.022,110.0,114.0,105.0,13.4,1505.3,325.0,-0.7,1.9,2470.361,13.33,0.025,350.9
2020-01-10T05:31:03,42.805,6.029,-0.019,0.026,-0.037,110.0,113.0,106.0,13.4,1505.3,326.9,-0.7,1.8,2470.387,13.33,0.032,323.8
2020-01-10T05:34:03,42.805,6.029,0.022,0.03,0.011,110.0,115.0,108.0,13.3,1505.3,325.4,-0.7,1.8,2470.399,13.33,0.037,36.3
2020-01-10T05:37:02,42.805,6.029,-0.011,0.042,-0.023,110.0,117.0,105.0,13.4,1505.3,328.5,-0.7,1.8,2470.382,13.33,0.043,345.3
2020-01-10T05:40:03,42.805,6.029,-0.036,0.027,-0.009,111.0,115.0,105.0,13.4,1505.3,327.0,-0.7,1.8,2470.404,13.33,0.045,306.9
2020-01-10T05:43:03,42.805,6.029,-0.012,0.028,-0.018,109.0,116.0,106.0,13.4,1505.3,328.4,-0.7,1.8,2470.388,13.33,0.03,336.8
2020-01-10T05:46:03,42.805,6.029,-0.005,0.02,0.008,111.0,116.0,106.0,13.4,1505.3,326.6,-0.7,1.8,2470.386,13.33,0.02,346.0
2020-01-10T05:49:03,42.805,6.029,0.0,0.028,-0.005,110.0,116.0,105.0,13.4,1505.3,328.3,-0.8,1.8,2470.38,13.33,0.028,0.0
2020-01-10T05:52:02,42.805,6.029,-0.022,0.032,-0.016,109.0,116.0,104.0,13.4,1505.3,323.3,-0.7,1.8,2470.381,13.33,0.038,325.5
2020-01-10T05:55:03,42.805,6.029,-0.002,0.031,-0.005,111.0,115.0,104.0,13.4,1505.3,327.2,-0.7,1.8,2470.427,13.33,0.031,356.3
2020-01-10T05:58:03,42.805,6.029,-0.016,-0.001,0.006,108.0,116.0,104.0,13.4,1505.3,326.8,-0.7,1.8,2470.421,13.33,0.016,266.4
2020-01-10T06:04:02,42.805,6.029,-0.019,0.026,-0.004,106.0,115.0,104.0,13.4,1505.3,325.9,-0.7,1.8,2470.399,13.31,0.032,323.8
2020-01-10T06:07:02,42.805,6.029,-0.007,0.048,-0.003,109.0,113.0,105.0,13.4,1505.3,325.1,-0.7,1.8,2470.461,13.32,0.048,351.7
2020-01-10T06:10:02,42.805,6.029,-0.014,0.035,-0.006,106.0,111.0,104.0,13.4,1505.3,328.3,-0.7,1.8,2470.429,13.32,0.037,338.2
2020-01-10T06:13:03,42.805,6.029,0.005,0.037,-0.021,106.0,114.0,102.0,13.4,1505.3,328.0,-0.7,1.8,2470.439,13.33,0.037,7.7
2020-01-10T06:16:03,42.805,6.029,-0.01,0.02,-0.035,107.0,112.0,105.0,13.4,1505.3,327.6,-0.7,1.8,2470.412,13.33,0.022,333.4
2020-01-10T06:19:03,42.805,6.029,0.011,0.023,-0.017,108.0,115.0,103.0,13.4,1505.3,327.8,-0.7,1.8,2470.404,13.33,0.025,25.6
2020-01-10T06:22:02,42.805,6.029,-0.011,0.018,-0.005,108.0,114.0,103.0,13.4,1505.3,325.8,-0.7,1.8,2470.433,13.33,0.021,328.6
2020-01-10T06:25:03,42.805,6.029,-0.006,0.019,0.023,107.0,113.0,104.0,13.4,1505.3,328.5,-0.7,1.8,2470.416,13.33,0.019,342.5
2020-01-10T06:28:03,42.805,6.029,-0.001,0.028,-0.01,108.0,113.0,104.0,13.3,1505.3,326.3,-0.7,1.8,2470.421,13.33,0.028,358.0
2020-01-10T06:31:03,42.805,6.029,-0.013,0.019,-0.022,109.0,116.0,105.0,13.4,1505.3,326.0,-0.7,1.8,2470.452,13.33,0.023,325.6
2020-01-10T06:34:02,42.805,6.029,-0.024,0.021,-0.016,110.0,114.0,105.0,13.4,1505.3,322.8,-0.7,1.8,2470.411,13.33,0.031,311.2
2020-01-10T06:37:02,42.805,6.029,-0.019,0.035,-0.026,111.0,116.0,104.0,13.4,1505.3,326.8,-0.7,1.8,2470.445,13.33,0.039,331.5
2020-01-10T06:40:03,42.805,6.029,-0.022,0.035,0.0,111.0,116.0,104.0,13.4,1505.3,327.3,-0.7,1.8,2470.415,13.33,0.041,327.8
2020-01-10T06:43:03,42.805,6.029,-0.012,0.037,-0.017,110.0,115.0,105.0,13.4,1505.3,327.4,-0.7,1.8,2470.377,13.33,0.038,342.0
2020-01-10T06:46:03,42.805,6.029,-0.018,0.012,0.013,109.0,114.0,104.0,13.4,1505.3,328.2,-0.7,1.8,2470.407,13.33,0.021,303.7
2020-01-10T06:49:02,42.805,6.029,-0.008,0.03,-0.022,109.0,114.0,106.0,13.4,1505.3,326.9,-0.7,1.8,2470.439,13.33,0.031,345.1
2020-01-10T06:52:02,42.805,6.029,-0.017,0.025,-0.03,108.0,115.0,105.0,13.4,1505.3,325.4,-0.7,1.8,2470.453,13.33,0.03,325.8
2020-01-10T06:55:03,42.805,6.029,-0.014,0.015,0.006,108.0,114.0,105.0,13.4,1505.3,326.0,-0.7,1.8,2470.435,13.33,0.02,317.0
2020-01-10T06:58:03,42.805,6.029,0.008,0.017,0.011,110.0,115.0,105.0,13.4,1505.3,325.8,-0.7,1.9,2470.426,13.33,0.018,25.2
2020-01-10T07:04:02,42.805,6.029,-0.011,0.019,-0.029,109.0,115.0,106.0,13.4,1505.3,326.8,-0.7,1.8,2470.456,13.31,0.021,329.9
2020-01-10T07:07:02,42.805,6.029,0.01,0.031,-0.039,109.0,116.0,105.0,13.4,1505.3,328.1,-0.7,1.8,2470.437,13.32,0.032,17.9
2020-01-10T07:10:03,42.805,6.029,-0.012,0.032,-0.005,110.0,114.0,105.0,13.4,1505.3,326.4,-0.7,1.8,2470.397,13.32,0.034,339.4
2020-01-10T07:13:03,42.805,6.029,0.002,0.017,-0.028,109.0,116.0,105.0,13.4,1505.3,324.3,-0.7,1.8,2470.449,13.33,0.017,6.7
2020-01-10T07:16:03,42.805,6.029,-0.023,0.026,-0.015,108.0,115.0,105.0,13.4,1505.3,323.5,-0.7,1.8,2470.463,13.33,0.034,318.5
2020-01-10T07:22:02,42.805,6.029,0.0,0.037,-0.01,108.0,114.0,104.0,13.4,1505.3,325.2,-0.7,1.8,2470.428,13.31,0.037,0.0
2020-01-10T07:25:03,42.805,6.029,-0.021,0.045,-0.018,108.0,115.0,105.0,13.3,1505.3,328.5,-0.7,1.8,2470.459,13.32,0.049,335.0
2020-01-10T07:28:03,42.805,6.029,0.0,0.019,0.004,109.0,115.0,104.0,13.3,1505.3,323.7,-0.7,1.8,2470.462,13.32,0.019,0.0
2020-01-10T07:31:02,42.805,6.029,0.006,0.041,0.004,109.0,115.0,104.0,13.4,1505.3,326.4,-0.7,1.8,2470.43,13.32,0.041,8.3
2020-01-10T07:34:03,42.805,6.029,-0.004,0.033,0.007,108.0,115.0,105.0,13.3,1505.3,326.6,-0.7,1.8,2470.422,13.33,0.033,353.1
2020-01-10T07:37:02,42.805,6.029,-0.008,0.024,-0.043,108.0,115.0,105.0,13.3,1505.3,327.0,-0.7,1.9,2470.43,13.33,0.025,341.6
2020-01-10T07:40:03,42.805,6.029,-0.021,0.04,0.009,107.0,115.0,104.0,13.4,1505.3,326.7,-0.7,1.8,2470.434,13.33,0.045,332.3
2020-01-10T07:43:03,42.805,6.029,-0.007,0.03,-0.018,109.0,115.0,105.0,13.4,1505.3,323.7,-0.7,1.8,2470.457,13.33,0.03,346.9
2020-01-10T07:46:03,42.805,6.029,0.0,0.039,0.015,108.0,114.0,104.0,13.4,1505.3,326.6,-0.7,1.8,2470.397,13.33,0.039,0.0
2020-01-10T07:49:03,42.805,6.029,-0.008,0.039,-0.034,107.0,115.0,105.0,13.3,1505.3,325.4,-0.7,1.8,2470.425,13.33,0.039,348.4
2020-01-10T07:52:02,42.805,6.029,-0.02,0.049,-0.013,109.0,116.0,105.0,13.3,1505.3,323.6,-0.7,1.8,2470.406,13.33,0.052,337.8
2020-01-10T07:55:03,42.805,6.029,-0.001,0.046,-0.014,109.0,115.0,104.0,13.4,1505.3,325.5,-0.7,1.8,2470.421,13.33,0.046,358.8
2020-01-10T07:58:03,42.805,6.029,-0.023,0.024,-0.006,108.0,116.0,104.0,13.4,1505.3,326.0,-0.7,1.8,2470.422,13.33,0.033,316.2
2020-01-10T08:04:02,42.805,6.029,-0.029,0.013,-0.032,109.0,116.0,105.0,13.4,1505.3,325.3,-0.7,1.8,2470.464,13.31,0.031,294.1
2020-01-10T08:07:02,42.805,6.029,0.005,0.046,0.0,109.0,114.0,105.0,13.4,1505.3,326.5,-0.7,1.8,2470.44,13.32,0.046,6.2
2020-01-10T08:10:02,42.805,6.029,-0.017,0.041,-0.027,110.0,115.0,104.0,13.3,1505.3,328.3,-0.7,1.8,2470.443,13.32,0.044,337.5
2020-01-10T08:13:03,42.805,6.029,0.0,0.035,-0.006,110.0,116.0,104.0,13.4,1505.3,325.2,-0.7,1.9,2470.408,13.33,0.035,0.0
2020-01-10T08:16:03,42.805,6.029,0.009,0.048,-0.004,106.0,115.0,103.0,13.4,1505.3,327.1,-0.7,1.8,2470.43,13.33,0.048,10.6
2020-01-10T08:19:03,42.805,6.029,0.012,0.035,0.002,108.0,114.0,104.0,13.4,1505.3,325.8,-0.7,1.8,2470.465,13.33,0.037,18.9
2020-01-10T08:22:02,42.805,6.029,0.0,0.027,-0.004,107.0,114.0,103.0,13.4,1505.3,324.6,-0.8,1.8,2470.433,13.33,0.026,0.0
2020-01-10T08:25:03,42.805,6.029,-0.005,0.046,-0.031,108.0,115.0,104.0,13.4,1505.3,326.9,-0.7,1.8,2470.455,13.33,0.046,353.8
2020-01-10T08:28:03,42.805,6.029,-0.007,0.011,-0.01,107.0,115.0,102.0,13.4,1505.3,323.7,-0.7,1.8,2470.433,13.33,0.013,327.5
2020-01-10T08:31:03,42.805,6.029,-0.015,0.038,-0.005,107.0,115.0,104.0,13.4,1505.3,323.7,-0.7,1.8,2470.414,13.33,0.04,338.5
2020-01-10T08:34:03,42.805,6.029,-0.007,0.042,0.011,107.0,116.0,104.0,13.4,1505.3,326.4,-0.7,1.9,2470.442,13.33,0.042,350.5
2020-01-10T08:37:02,42.805,6.029,0.005,0.031,-0.025,108.0,114.0,104.0,13.4,1505.3,326.5,-0.7,1.8,2470.426,13.33,0.031,9.2
2020-01-10T08:40:03,42.805,6.029,-0.014,0.038,-0.002,109.0,115.0,105.0,13.3,1505.3,327.4,-0.7,1.8,2470.441,13.33,0.04,339.8
2020-01-10T08:43:03,42.805,6.029,-0.01,0.043,-0.022,106.0,115.0,104.0,13.3,1505.3,323.2,-0.7,1.9,2470.447,13.33,0.044,346.9
2020-01-10T08:46:03,42.805,6.029,-0.021,0.033,-0.011,107.0,114.0,104.0,13.4,1505.3,324.0,-0.7,1.8,2470.395,13.33,0.039,327.5
2020-01-10T08:49:03,42.805,6.029,-0.012,0.041,-0.063,107.0,114.0,103.0,13.4,1505.3,326.5,-0.7,1.9,2470.4,13.33,0.042,343.7
2020-01-10T08:52:02,42.805,6.029,-0.018,0.027,-0.024,107.0,115.0,103.0,13.3,1505.3,326.0,-0.7,1.8,2470.444,13.33,0.032,326.3
2020-01-10T08:55:03,42.805,6.029,0.017,0.015,0.004,107.0,116.0,103.0,13.3,1505.3,326.5,-0.7,1.8,2470.378,13.33,0.022,48.6
2020-01-10T08:58:03,42.805,6.029,0.005,0.024,-0.025,109.0,113.0,104.0,13.4,1505.3,325.3,-0.8,1.8,2470.384,13.33,0.024,11.8
2020-01-10T09:04:02,42.805,6.029,-0.009,0.034,0.001,107.0,116.0,103.0,13.3,1505.3,326.6,-0.8,1.8,2470.474,13.31,0.035,345.2
2020-01-10T09:07:02,42.805,6.029,-0.013,0.036,0.006,108.0,114.0,104.0,13.4,1505.3,325.4,-0.7,1.8,2470.407,13.32,0.038,340.1
2020-01-10T09:10:03,42.805,6.029,0.007,0.039,0.006,109.0,116.0,103.0,13.4,1505.3,324.7,-0.7,1.8,2470.384,13.32,0.039,10.2
2020-01-10T09:13:02,42.805,6.029,-0.017,0.033,-0.025,109.0,114.0,104.0,13.3,1505.3,326.0,-0.7,1.8,2470.367,13.32,0.037,332.7
2020-01-10T09:16:03,42.805,6.029,-0.012,0.024,-0.018,107.0,115.0,104.0,13.4,1505.3,324.5,-0.7,1.8,2470.4,13.33,0.026,333.4
2020-01-10T09:19:03,42.805,6.029,-0.012,0.024,-0.04,108.0,115.0,103.0,13.4,1505.3,328.4,-0.7,1.8,2470.412,13.33,0.026,333.4
2020-01-10T09:22:02,42.805,6.029,-0.011,0.017,-0.005,108.0,115.0,104.0,13.3,1505.3,323.3,-0.7,1.8,2470.425,13.33,0.02,327.1
2020-01-10T09:25:03,42.805,6.029,-0.013,0.048,0.002,109.0,115.0,103.0,13.4,1505.3,324.9,-0.7,1.8,2470.386,13.33,0.049,344.8
2020-01-10T09:28:03,42.805,6.029,-0.005,0.023,0.014,107.0,115.0,103.0,13.4,1505.3,323.7,-0.7,1.8,2470.418,13.33,0.023,347.7
2020-01-10T09:31:03,42.805,6.029,-0.007,0.039,-0.014,107.0,114.0,104.0,13.4,1505.3,324.9,-0.7,1.8,2470.395,13.33,0.039,349.8
2020-01-10T09:34:03,42.805,6.029,-0.019,0.037,0.012,108.0,113.0,104.0,13.4,1505.3,323.5,-0.7,1.8,2470.39,13.33,0.041,332.8
2020-01-10T09:37:02,42.805,6.029,0.0,0.039,0.002,108.0,116.0,103.0,13.3,1505.3,325.7,-0.7,1.8,2470.389,13.33,0.039,0.0
2020-01-10T09:40:03,42.805,6.029,-0.011,0.029,-0.022,108.0,117.0,104.0,13.4,1505.3,324.3,-0.7,1.8,2470.421,13.33,0.031,339.2
2020-01-10T09:43:03,42.805,6.029,0.01,0.045,-0.031,108.0,119.0,104.0,13.3,1505.3,327.6,-0.7,1.8,2470.378,13.33,0.046,12.5
2020-01-10T09:46:03,42.805,6.029,-0.013,0.017,-0.018,107.0,117.0,104.0,13.4,1505.3,325.6,-0.7,1.9,2470.356,13.33,0.021,322.6
2020-01-10T09:49:03,42.805,6.029,-0.014,0.033,-0.007,109.0,117.0,104.0,13.3,1505.3,323.6,-0.7,1.8,2470.366,13.33,0.035,337.0
2020-01-10T09:52:02,42.805,6.029,-0.023,0.03,-0.02,108.0,118.0,103.0,13.4,1505.3,325.2,-0.7,1.9,2470.37,13.33,0.037,322.5
2020-01-10T09:55:03,42.805,6.029,-0.014,0.033,-0.019,108.0,118.0,104.0,13.4,1505.3,327.3,-0.7,1.8,2470.361,13.33,0.035,337.0
2020-01-10T09:58:02,42.805,6.029,0.0,0.044,-0.016,108.0,117.0,103.0,13.3,1505.3,326.1,-0.7,1.8,2470.364,13.33,0.044,0.0
2020-01-10T10:04:02,42.805,6.029,0.003,0.04,-0.018,107.0,118.0,103.0,13.3,1505.3,326.0,-0.7,1.9,2470.416,13.31,0.04,4.3
2020-01-10T10:07:02,42.805,6.029,0.003,0.025,-0.004,107.0,118.0,103.0,13.4,1505.3,327.7,-0.7,1.8,2470.38,13.32,0.025,6.8